User: anonymous   Login
Location: Unspecified
(0.0000°N, 0.0000°E)
Time: 03:18:05
(UTC+00:00)
Language:

STARLINK-3189 - Orbit

View from above orbital plane
View from above orbital plane
View from above satellite
View from above satellite

Ground track
Ground track

The orbit is defined by the following mean orbital elements,

1 51464U          26145.66356757 +.00000000 +00000-0 +65433-4 0 00001
2 51464  53.2141 293.5727 0001374  90.2502 269.8648 15.08840386    02
Epoch (UTC): 25 May 2026 15:55:32
Eccentricity: 0.0001374
inclination: 53.2141°
perigee height: 539 km
apogee height: 541 km
right ascension of ascending node: 293.5727°
argument of perigee: 90.2502°
revolutions per day: 15.08840386
mean anomaly at epoch: 269.8648°

The dashed part of the orbit path shows where the satellite is in the earth's shadow,  

DLR